Station PEXA2 - Pelican MXAK, AK Image indicating link to RSS feed of recent meteorological observations for station PEXA2


Conditions at PEXA2 as of
(9:33 am AKDT)
1733 GMT on 05/28/2024:
     

Click on the graph icon in the table below to see a time series plot of the last five days of that observation.

5-day plot - Wind Direction Wind Direction (WDIR): S ( 170 deg true )
5-day plot - Wind Speed Wind Speed (WSPD): 3 kts
5-day plot - Wind Gust Wind Gust (GST): 8 kts
5-day plot - Atmospheric Pressure Atmospheric Pressure (PRES):29.89 in
5-day plot - Air Temperature Air Temperature (ATMP): 48.9 °F
5-day plot - Dew Point Dew Point (DEWP): 46.4 °F
5-day plot - Wind Chill Wind Chill (CHILL): 48.2 °F
5-day plot - Wind Speed at 10 Meters Wind Speed at 10 meters (WSPD10M): 4 kts
5-day plot - Wind Speed at 20 Meters Wind Speed at 20 meters (WSPD20M): 4 kts
5-day plot -  Wind Speed, Wind Gust and Atmospheric Pressure Combined plot of Wind Speed, Gust, and Air Pressure
Previous observations
TIME
(AKDT)
5-day plot - Wind Direction
WDIR
 
5-day plot - Wind Speed
WSPD
kts
5-day plot - Wind Gust
GST
kts
5-day plot - Wave Height
WVHT
ft
5-day plot - Dominant Wave Period
DPD
sec
5-day plot - Average Wave Period
APD
sec
5-day plot - Mean Wave Direction
MWD
 
5-day plot - Atmospheric Pressure
PRES
in
5-day plot - Pressure Tendency
PTDY
in
5-day plot - Air Temperature
ATMP
°F
5-day plot - Water Temperature
WTMP
°F
5-day plot - Dew Point
DEWP
°F
5-day plot - Salinity
SAL
psu
5-day plot - Visibility
VIS
nmi
5-day plot - Tide (above MLLW)
TIDE
ft
2024-05-28 09:23 amSSE 3 7----29.89- 47.7- 46.8---
2024-05-28 09:13 amSSE 2 7----29.89- 46.9- 46.9---
2024-05-28 09:03 am S 2 5----29.89- 46.6- 46.6---
2024-05-28 08:53 am S 1 5----29.89- 46.4- 46.4---
2024-05-28 08:43 am- 0 2----29.89- 45.7- 45.7---
2024-05-28 08:34 amSSW 1 2----29.90- 45.3- 45.3---
2024-05-28 08:23 am W 2 3----29.90- 45.1- 45.1---
2024-05-28 08:13 amWNW 1 2----29.90- 44.8- 44.8---
2024-05-28 08:04 am- 0 2----29.90- 44.2- 44.2---
2024-05-28 07:53 am W 1 2----29.90- 43.9- 43.9---
2024-05-28 07:43 amSSW 1 2----29.90- 43.7- 43.7---
2024-05-28 07:33 am N 1 2----29.90- 43.5- 43.5---
2024-05-28 07:23 amWSW 1 2----29.90- 43.2- 43.2---
2024-05-28 07:13 am- 0 1----29.90- 43.0- 43.0---
2024-05-28 07:04 am- 0 2----29.90- 42.6- 42.6---
2024-05-28 06:53 am- 0 2----29.90- 42.4- 42.4---
2024-05-28 06:43 am- 0 2----29.90- 42.4- 42.4---
2024-05-28 06:33 amESE 1 3----29.90- 42.3- 42.3---
2024-05-28 06:23 am- 0 2----29.90- 41.9- 41.9---
2024-05-28 06:13 am SE 1 3----29.91- 41.9- 41.9---
2024-05-28 06:03 am S 1 3----29.91- 41.9- 41.9---
2024-05-28 05:53 amSSE 2 4----29.91- 41.5- 41.5---
2024-05-28 05:43 amSSE 2 3----29.91- 41.4- 41.4---
2024-05-28 05:33 amSSE 2 3----29.91- 41.4- 41.4---
2024-05-28 05:23 am SE 1 2----29.91- 41.7- 41.7---
2024-05-28 05:13 amESE 2 3----29.91- 41.5- 41.5---
2024-05-28 05:03 am SE 2 3----29.91- 41.9- 41.9---
2024-05-28 04:53 amNNE 1 3----29.91- 42.1- 42.1---
2024-05-28 04:43 amENE 1 2----29.90- 41.4- 41.4---
2024-05-28 04:33 am SE 2 2----29.90- 41.5- 41.5---
2024-05-28 04:23 amSSW 1 2----29.91- 42.1- 42.1---
2024-05-28 04:13 amSSE 1 2----29.91- 42.4- 42.4---
2024-05-28 04:03 am E 1 2----29.91- 42.8- 42.8---
2024-05-28 03:53 am- 0 2----29.91- 42.8- 42.8---
2024-05-28 03:43 am E 1 2----29.91- 42.8- 42.8---
2024-05-28 03:33 am SE 2 3----29.91- 42.8- 42.8---
2024-05-28 03:23 amSSE 2 3----29.91- 42.8- 42.8---
2024-05-28 03:13 am S 1 2----29.91- 43.2- 43.2---
2024-05-28 03:03 am- 0 2----29.91- 43.5- 43.5---
2024-05-28 02:53 am SE 2 3----29.91- 43.9- 43.9---
2024-05-28 02:43 am- 0 2----29.91- 43.9- 43.9---
2024-05-28 02:33 am- 0 1----29.91- 43.7- 43.7---
2024-05-28 02:23 am- 0 2----29.91- 43.7- 43.7---
2024-05-28 02:13 am- 0 1----29.91- 43.7- 43.7---
2024-05-28 02:03 am SE 1 2----29.91- 43.9- 43.9---
2024-05-28 01:53 amESE 1 2----29.91- 44.1- 44.1---
2024-05-28 01:43 amESE 1 2----29.91- 44.2- 44.2---
2024-05-28 01:33 am- 0 2----29.91- 44.4- 44.4---
2024-05-28 01:23 am- 0 1----29.91- 44.6- 44.6---
2024-05-28 01:13 am- 0 1----29.91- 44.8- 44.8---
2024-05-28 01:03 am- 0 2----29.91- 44.8- 44.8---
2024-05-28 12:53 am- 0 2----29.91- 44.6- 44.6---
2024-05-28 12:43 am S 1 2----29.91- 44.2- 44.2---
2024-05-28 12:33 am- 0 2----29.91- 44.8- 44.8---
2024-05-28 12:23 am- 0 2----29.91- 45.0- 45.0---
2024-05-28 12:14 am- 0 1----29.91- 45.0- 45.0---
2024-05-28 12:03 am- 0 1----29.91- 45.0- 45.0---
2024-05-27 11:53 pm- 0 2----29.91- 45.1- 45.1---
2024-05-27 11:43 pm- 0 1----29.91- 45.1- 45.1---
2024-05-27 11:33 pm- 0 2----29.91- 45.0- 45.0---
2024-05-27 11:23 pm S 1 2----29.91- 45.1- 45.1---
2024-05-27 11:13 pm- 0 2----29.90- 45.1- 45.1---
2024-05-27 11:03 pm- 0 1----29.90- 45.1- 45.1---
2024-05-27 10:53 pm- 0 1----29.90- 45.1- 45.1---
2024-05-27 10:43 pm- 0 2----29.90- 45.1- 45.1---
2024-05-27 10:33 pm- 0 1----29.90- 45.3- 45.3---
2024-05-27 10:23 pm- 0 1----29.90- 45.3- 45.3---
2024-05-27 10:13 pm- 0 2----29.90- 45.3- 45.3---
2024-05-27 10:03 pmNNE 2 3----29.90- 45.1- 45.1---
2024-05-27 09:53 pm N 2 3----29.90- 45.1- 45.1---
2024-05-27 09:43 pm N 2 3----29.90- 45.1- 45.1---
2024-05-27 09:33 pm N 1 3----29.90- 45.5- 45.5---
2024-05-27 09:23 pmNNE 3 6----29.90- 45.5- 45.5---
2024-05-27 09:13 pm N 4 5----29.90- 45.5- 45.5---
2024-05-27 09:03 pmNNE 5 8----29.89- 45.7- 45.7---
2024-05-27 08:53 pm N 3 6----29.90- 45.9- 45.9---
2024-05-27 08:43 pm N 3 5----29.89- 46.0- 46.0---
2024-05-27 08:33 pm N 4 8----29.89- 46.2- 46.2---
2024-05-27 08:23 pm N 6 9----29.89- 46.2- 46.2---
2024-05-27 08:13 pm N 5 10----29.89- 46.2- 46.2---
2024-05-27 08:03 pm N 6 10----29.89- 46.4- 46.2---
2024-05-27 07:53 pm N 8 13----29.89- 46.8- 46.2---
2024-05-27 07:43 pmNNW 8 13----29.88- 47.1- 46.9---
2024-05-27 07:33 pmNNW 8 13----29.88- 47.5- 46.9---
2024-05-27 07:23 pm N 7 10----29.88- 48.0- 46.4---
2024-05-27 07:13 pmNNW 3 10----29.88- 48.6- 45.5---
2024-05-27 07:03 pmWNW 2 6----29.88- 48.7- 43.7---
2024-05-27 06:53 pm N 2 6----29.88- 48.9- 42.6---
2024-05-27 06:43 pmSSE 2 8----29.88- 49.5- 44.1---
2024-05-27 06:33 pmSSE 4 10----29.88- 49.8- 44.2---
2024-05-27 06:23 pm N 5 9----29.87- 49.5- 45.7---
2024-05-27 06:13 pm N 6 9----29.87- 49.6- 46.0---
2024-05-27 06:03 pm N 6 9----29.87- 49.5- 46.0---
2024-05-27 05:53 pm N 5 10----29.87- 49.3- 46.2---
2024-05-27 05:43 pm N 6 9----29.87- 49.1- 45.7---
2024-05-27 05:33 pm N 6 10----29.87- 49.5- 44.4---
2024-05-27 05:23 pm N 8 11----29.86- 50.2- 44.6---
2024-05-27 05:13 pmNNW 8 10----29.86- 50.2- 44.8---
2024-05-27 05:03 pmNNW 8 11----29.86- 49.8- 45.3---
2024-05-27 04:53 pmNNW 7 11----29.86- 49.8- 45.9---
2024-05-27 04:43 pmNNW 7 9----29.86- 49.6- 46.8---
2024-05-27 04:33 pmNNW 6 10----29.86- 50.2- 46.6---
2024-05-27 04:23 pmNNW 5 9----29.86- 51.4- 47.5---
2024-05-27 04:13 pm NW 2 4----29.86- 53.1- 45.5---
2024-05-27 03:53 pmESE 1 3----29.86- 51.8- 50.7---
2024-05-27 03:43 pmESE 1 3----29.86- 52.5- 47.1---
2024-05-27 03:33 pm NW 2 4----29.85- 53.2- 45.9---
2024-05-27 03:23 pm NW 3 5----29.85- 52.0- 44.6---
2024-05-27 03:13 pmNNW 5 8----29.85- 50.5- 43.2---
2024-05-27 03:03 pm N 5 9----29.85- 49.3- 45.1---
2024-05-27 02:53 pm N 4 6----29.85- 48.4- 45.7---
2024-05-27 02:44 pm N 4 7----29.85- 48.4- 46.2---
2024-05-27 02:34 pm NE 1 4----29.84- 49.5- 48.4---
2024-05-27 02:23 pm NW 2 4----29.84- 50.5- 46.0---
2024-05-27 02:13 pm S 2 6----29.84- 52.2- 46.9---
2024-05-27 02:03 pm SE 2 4----29.83- 52.2- 44.8---
2024-05-27 01:53 pmENE 4 10----29.83- 52.3- 44.8---
2024-05-27 01:43 pm S 3 7----29.82- 53.8- 45.9---
2024-05-27 01:33 pm S 5 10----29.82- 53.6- 46.2---
2024-05-27 01:23 pm S 3 6----29.82- 53.4- 45.7---
2024-05-27 01:13 pm S 3 7----29.81- 52.5- 45.5---
2024-05-27 01:03 pm S 4 8----29.81- 52.5- 45.5---
2024-05-27 12:53 pm S 5 10----29.81- 54.0- 43.5---
2024-05-27 12:43 pm S 4 8----29.81- 54.5- 43.0---
2024-05-27 12:33 pm S 4 9----29.81- 54.7- 43.5---
2024-05-27 12:23 pm S 3 9----29.81- 55.2- 44.1---
2024-05-27 12:13 pm S 4 7----29.80- 55.6- 43.7---
2024-05-27 12:03 pm S 5 8----29.80- 55.2- 45.0---
2024-05-27 11:53 am S 5 10----29.80- 55.2- 45.5---
2024-05-27 11:43 am S 4 8----29.80- 54.9- 46.2---
2024-05-27 11:33 am S 5 13----29.80- 53.4- 45.0---
2024-05-27 11:23 am S 4 7----29.81- 53.8- 45.1---
2024-05-27 11:13 am S 4 10----29.80- 52.2- 44.4---
2024-05-27 11:03 am S 7 15----29.80- 51.8- 43.7---
2024-05-27 10:53 am S 5 10----29.80- 51.8- 43.7---
2024-05-27 10:43 am S 5 10----29.80- 52.0- 43.0---
2024-05-27 10:33 am S 5 12----29.80- 52.3- 43.3---
2024-05-27 10:23 amSSE 5 10----29.80- 52.0- 43.5---
2024-05-27 10:13 amSSE 5 9----29.80- 52.0- 43.0---
2024-05-27 10:03 am S 6 11----29.80- 51.4- 43.0---
2024-05-27 09:53 am S 5 11----29.80- 51.3- 43.0---
2024-05-27 09:43 am S 4 10----29.80- 50.7- 43.2---
2024-05-27 09:33 am S 4 9----29.80- 49.8- 42.6---
2024-05-27 09:23 am S 4 10----29.80- 49.3- 43.3---
2024-05-27 09:13 am S 4 7----29.80- 48.7- 43.2---
2024-05-27 09:03 am S 4 8----29.80- 48.4- 43.2---
2024-05-27 08:53 am S 4 8----29.80- 48.6- 44.8---